Regional Weather Roundup
Issued by NWS

Home | Current Version | Previous Version | Text Only | Print | Product List | Glossary Off
Versions: 1 2 3 4 5 6 7 8 9 10 11 12 13 14 15 16 17 18 19 20 21 22 23 24 25 26 27 28 29 30 31 32 33 34 35 36 37 38 39 40 41 42 43 44 45 46 47 48 49 50

000
ASUS43 KLOT 250310
RWRIL

ILLINOIS REGIONAL WEATHER ROUNDUP
NATIONAL WEATHER SERVICE CHICAGO/ROMEOVILLE IL
1000 PM CDT FRI OCT 24 2014

NOTE: "FAIR" INDICATES FEW OR NO CLOUDS BELOW 12,000 FEET WITH NO
SIGNIFICANT WEATHER AND/OR OBSTRUCTIONS TO VISIBILITY.

* THESE STATIONS ARE NOT UNDER NWS QUALITY CONTROL. THEY ALSO MAY NOT
  REPORT WEATHER SUCH AS PRECIPITATION OR FOG.

ILZ001-002-007-009-015-016-024-250400-
NORTHWEST ILLINOIS

CITY           SKY/WX    TMP DP  RH WIND       PRES   REMARKS
MOLINE         CLOUDY    60  56  86 W5        29.95S FOG
STERLING*      CLOUDY    59  48  67 CALM      29.95S
SAVANNA*       CLOUDY    62  56  81 W8        29.94R
$$

ILZ003-004-008-010-011-017-018-250400-
NORTH CENTRAL ILLINOIS

CITY           SKY/WX    TMP DP  RH WIND       PRES   REMARKS
ROCKFORD       CLOUDY    60  46  59 SW10      29.95F
FREEPORT*      CLOUDY    58  49  74 SW7       29.94S
ROCHELLE*      CLOUDY    58  48  68 SW8       29.95S
DE KALB*       CLOUDY    58  47  66 S9        29.95F
PERU*          CLOUDY    60  52  74 S8        29.96F
$$

ILZ005-006-012>014-019>023-250400-
NORTHEAST ILLINOIS

CITY           SKY/WX    TMP DP  RH WIND       PRES   REMARKS
CHICAGO-OHARE  CLOUDY    61  46  57 W8        29.94S
CHICAGO-MIDWAY CLOUDY    62  47  57 SW8       29.94S
AURORA         CLOUDY    60  47  61 SW8       29.95S
LANSING*       MOCLDY    54  47  76 SW6       29.96S
JOLIET*        CLOUDY    59  49  70 SW6       29.96R
WAUKEGAN       CLOUDY    54  51  90 CALM      29.93S FOG
DUPAGE AIRPORT CLOUDY    59  49  69 SW6       29.94S
KANKAKEE*      CLOUDY    56  52  86 SW8       29.97F
WHEELING       CLOUDY    62  46  55 SW7       29.96R
MORRIS*        LGT RAIN  58  52  80 S5        29.95S
ROMEOVILLE*    CLOUDY    58  48  69 SW7       29.96R
NORTHERLY ISL    N/A     62  45  53 SW8         N/A
$$

LMZ740>746-250400-
SOUTHERN LAKE MICHIGAN

STATION/POSITION SKY/WX   TEMP    WIND        PRES    VSBY  WAVE
                          AIR SEA DIR/SP/G                  HT/PER
                          (F)     (DEG/KT/KT) (MB)    (MI)  (FT/S)
SOUTHERN BUOY              56 54  170/  8/ 10 1013.7F         0
WAUKEGAN HARBOR            56        CALM       N/A
HARRISON CRIB              62     170/ 13/ 14   N/A
BURNHAM HARBOR             63     220/  5/  9   N/A
CALUMET HARBOR             60     210/  6/  8 1012.8F
MICHIGAN CITY              58     130/ 12/ 13   N/A
$$

ILZ025>027-034>036-040-047-049-050-058-095>099-250400-
WEST-CENTRAL ILLINOIS

CITY           SKY/WX    TMP DP  RH WIND       PRES   REMARKS
QUINCY         MOCLDY    62  57  83 SW8       29.97R
GALESBURG*     MOCLDY    58  53  83 S5        29.95F
MACOMB*        MOCLDY    56  51  85 CALM      29.99R
JACKSONVILLE*  MOCLDY    64  50  62 S6        29.97R
PITTSFIELD*    MOCLDY    64  55  71 SW5       29.98R
$$

ILZ028>032-037-038-041>044-048-051>054-059>061-250400-
CENTRAL ILLINOIS

CITY           SKY/WX    TMP DP  RH WIND       PRES   REMARKS
PONTIAC        CLOUDY    59  55  85 S8        29.98R
BLOOMINGTON    MOCLDY    57  55  93 S9        30.00S FOG
DECATUR        CLOUDY    58  53  84 S6        30.00S
PEORIA         CLOUDY    63  51  65 S9        29.98R
LACON*         CLOUDY    59  50  71 S3        29.95S
LINCOLN*       CLOUDY    57  54  87 CALM      29.98R
SPRINGFIELD    MOCLDY    61  50  67 S5        29.98R
TAYLORVILLE    PTCLDY    55  52  88 S7        29.99S
$$

ILZ033-039-045-046-055>057-062-063-250400-
EAST-CENTRAL ILLINOIS

CITY           SKY/WX    TMP DP  RH WIND       PRES   REMARKS
CHAMPAIGN      MOCLDY    54  52  93 S3        30.02R FOG
DANVILLE*      PTCLDY    55  53  94 CALM      29.98S FOG
RANTOUL*       MOCLDY    53  52  95 CALM      30.01R FOG
MATTOON        PTCLDY    57  52  83 S7        30.00S
PARIS*         PTCLDY    49  48  99 CALM      30.03R FOG
$$

ILZ079-100>102-250400-
SOUTHWEST ILLINOIS

CITY           SKY/WX    TMP DP  RH WIND       PRES   REMARKS
ALTON          PTCLDY    61  48  63 S6        30.00
BELLEVILLE     PTCLDY    58  51  78 S6        30.00F
CAHOKIA*       PTCLDY    63  49  60 S5        30.00F
SPARTA*        PTCLDY    62  52  69 S6        30.04S
$$

ILZ064>066-069>071-074>076-080>082-084>086-088>090-092>094-250400-
SOUTH-CENTRAL ILLINOIS

CITY           SKY/WX    TMP DP  RH WIND       PRES   REMARKS
CARBONDALE     PTCLDY    53  49  86 S3        30.05R
CAIRO*         PTCLDY    53  50  88 CALM      30.07R
EFFINGHAM*     MOCLDY    55  51  85 S3        30.02S
MARION         CLEAR     55  52  88 S6        30.06R
MT. VERNON     PTCLDY    50  46  87 CALM      30.05S
CENTRALIA*     CLOUDY    60  52  74 S8        30.03S
SALEM*         CLOUDY    60  55  85 S6        30.03S
METROPOLIS*    CLEAR     51  51 100 CALM      30.07R FOG
$$

ILZ067-068-072-073-078-083-087-091-250400-
SOUTHEAST ILLINOIS

CITY           SKY/WX    TMP DP  RH WIND       PRES   REMARKS
LAWRENCEVILLE  PTCLDY    51  49  92 S5        30.04S
FLORA*         PTCLDY    51  49  93 CALM      30.04S
FAIRFIELD*     CLEAR     49  48  96 CALM      30.04S
HARRISBURG*    CLEAR     50  50 100 CALM      30.07R FOG
ROBINSON*      PTCLDY    52  50  93 CALM      30.04S
CARMI*         CLEAR     50  49  97 S5        30.05S
$$

ABBREVIATIONS USED IN REMARKS
   TC - TEMPERATURE IN CELSIUS
  WCI - WIND CHILL INDEX
   HX - HEAT INDEX
  VSB - VISIBILITY
$$




USA.gov is the U.S. government's official web portal to all federal, state and local government web resources and services.